Terug naar catalogus

STARLINK-37553

ActiefCommunicatieVLEO
NORAD 69820·PAYLOAD·🇺🇸 United States

Gelanceerd Jul 5, 2026 vanaf Cape Canaveral Space Force Station

Loading…

Volgende Passages (komende 24 uur)

TLE

VersSource: CelesTrak SupGP

Epoch: Sep 14, 2026, 21:26 UTC

1 69820C 26154B   26257.89354167 -.00008630  00000+0 -25500-3 0  2578
2 69820  53.1583 357.7526 0001233  79.7825 148.6744 15.34392018    15

Volg STARLINK-37553 in realtime met AllMySat

Download on the App Store